• In Uzbekistan
  • List of Countries
  • For 7 days
  • Water Temperature
  • Satellite Maps
  • Weather Map
  • Weather Widgets
  • user-avatar
    Login

    Hourly Weather Gold Coast

    Today, 23 July, Sunday

    Time Temperature Precipitation Wind Pressure Humidity
    00:00 +12°C° 0 mm 1 mps 762 mmHg 86%
    01:00 +10°C° 0 mm 2 mps 762 mmHg 87%
    02:00 +10°C° 0 mm 2 mps 762 mmHg 88%
    03:00 +10°C° 0 mm 2 mps 762 mmHg 88%
    04:00 +10°C° 0 mm 2 mps 762 mmHg 88%
    05:00 +10°C° 0 mm 3 mps 762 mmHg 87%
    06:00 +9°C° 0 mm 3 mps 762 mmHg 87%
    07:00 +9°C° 0 mm 3 mps 762 mmHg 86%
    08:00 +12°C° 0 mm 3 mps 762 mmHg 72%
    09:00 +16°C° 0 mm 3 mps 762 mmHg 58%
    10:00 +19°C° 0 mm 4 mps 762 mmHg 45%
    11:00 +20°C° 0 mm 4 mps 762 mmHg 40%
    12:00 +22°C° 0 mm 4 mps 761 mmHg 36%
    13:00 +23°C° 0 mm 4 mps 760 mmHg 32%
    14:00 +24°C° 0 mm 3 mps 760 mmHg 34%
    15:00 +22°C° 0 mm 3 mps 760 mmHg 37%
    16:00 +22°C° 0 mm 3 mps 759 mmHg 40%
    17:00 +20°C° 0 mm 3 mps 760 mmHg 43%
    18:00 +17°C° 0 mm 3 mps 760 mmHg 45%
    19:00 +14°C° 0 mm 3 mps 760 mmHg 48%
    20:00 +13°C° 0 mm 3 mps 761 mmHg 48%
    21:00 +13°C° 0 mm 3 mps 761 mmHg 49%
    22:00 +12°C° 0 mm 3 mps 761 mmHg 49%
    23:00 +11°C° 0 mm 3 mps 761 mmHg 50%

    Tomorrow, 24 July, Monday

    Time Temperature Precipitation Wind Pressure Humidity
    00:00 +11°C° 0 mm 3 mps 761 mmHg 51%
    01:00 +10°C° 0 mm 3 mps 761 mmHg 52%
    02:00 +10°C° 0 mm 3 mps 761 mmHg 51%
    03:00 +10°C° 0 mm 2 mps 761 mmHg 50%
    04:00 +9°C° 0 mm 2 mps 760 mmHg 49%
    05:00 +10°C° 0 mm 2 mps 761 mmHg 49%
    06:00 +10°C° 0 mm 2 mps 761 mmHg 48%
    07:00 +10°C° 0 mm 2 mps 762 mmHg 47%
    08:00 +14°C° 0 mm 2 mps 762 mmHg 43%
    09:00 +18°C° 0 mm 1 mps 762 mmHg 38%
    10:00 +22°C° 0 mm 1 mps 762 mmHg 34%
    11:00 +23°C° 0 mm 1 mps 762 mmHg 32%
    12:00 +25°C° 0 mm 1 mps 761 mmHg 30%
    13:00 +26°C° 0 mm 1 mps 761 mmHg 28%
    14:00 +25°C° 0 mm 2 mps 761 mmHg 32%
    15:00 +24°C° 0 mm 2 mps 761 mmHg 36%
    16:00 +23°C° 0 mm 2 mps 760 mmHg 41%
    17:00 +20°C° 0 mm 2 mps 761 mmHg 48%
    18:00 +19°C° 0 mm 1 mps 761 mmHg 55%
    19:00 +15°C° 0 mm 1 mps 762 mmHg 62%
    20:00 +14°C° 0 mm 1 mps 762 mmHg 63%
    21:00 +14°C° 0 mm 1 mps 763 mmHg 64%
    22:00 +13°C° 0 mm 1 mps 763 mmHg 65%
    23:00 +13°C° 0 mm 2 mps 763 mmHg 63%

    Day after tomorrow, 25 July, Tuesday

    Time Temperature Precipitation Wind Pressure Humidity
    00:00 +12°C° 0 mm 2 mps 763 mmHg 61%
    01:00 +12°C° 0 mm 2 mps 763 mmHg 59%
    02:00 +10°C° 0 mm 2 mps 762 mmHg 59%
    03:00 +10°C° 0 mm 2 mps 762 mmHg 59%
    04:00 +10°C° 0 mm 3 mps 762 mmHg 59%
    05:00 +10°C° 0 mm 2 mps 763 mmHg 59%
    06:00 +10°C° 0 mm 2 mps 763 mmHg 59%
    07:00 +10°C° 0 mm 2 mps 764 mmHg 60%
    08:00 +14°C° 0 mm 2 mps 764 mmHg 53%
    09:00 +17°C° 0 mm 2 mps 764 mmHg 46%
    10:00 +21°C° 0 mm 1 mps 764 mmHg 39%
    11:00 +22°C° 0 mm 1 mps 763 mmHg 37%
    12:00 +23°C° 0 mm 1 mps 763 mmHg 34%
    13:00 +25°C° 0 mm 1 mps 762 mmHg 32%
    14:00 +24°C° 0 mm 2 mps 762 mmHg 36%
    15:00 +23°C° 0 mm 2 mps 762 mmHg 39%
    16:00 +21°C° 0 mm 2 mps 761 mmHg 43%
    17:00 +19°C° 0 mm 2 mps 762 mmHg 55%
    18:00 +17°C° 0 mm 2 mps 762 mmHg 66%
    19:00 +14°C° 0 mm 2 mps 763 mmHg 77%
    20:00 +14°C° 0 mm 1 mps 763 mmHg 80%
    21:00 +14°C° 0 mm 1 mps 763 mmHg 83%
    22:00 +13°C° 0 mm 1 mps 763 mmHg 86%
    23:00 +13°C° 0 mm 1 mps 763 mmHg 86%

    26 July, Wednesday

    Time Temperature Precipitation Wind Pressure Humidity
    00:00 +12°C° 0 mm 2 mps 763 mmHg 85%
    01:00 +12°C° 0 mm 2 mps 763 mmHg 85%
    02:00 +12°C° 0 mm 2 mps 763 mmHg 82%
    03:00 +10°C° 0 mm 2 mps 763 mmHg 79%
    04:00 +10°C° 0 mm 2 mps 762 mmHg 77%
    05:00 +10°C° 0 mm 2 mps 763 mmHg 73%
    06:00 +10°C° 0 mm 2 mps 763 mmHg 70%
    07:00 +10°C° 0 mm 2 mps 763 mmHg 66%
    08:00 +14°C° 0 mm 2 mps 763 mmHg 57%
    09:00 +17°C° 0 mm 2 mps 763 mmHg 47%
    10:00 +20°C° 0 mm 2 mps 763 mmHg 37%
    11:00 +23°C° 0 mm 2 mps 763 mmHg 33%
    12:00 +24°C° 0 mm 2 mps 762 mmHg 29%
    13:00 +26°C° 0 mm 2 mps 761 mmHg 26%
    14:00 +25°C° 0 mm 2 mps 761 mmHg 30%
    15:00 +25°C° 0 mm 2 mps 760 mmHg 35%
    16:00 +24°C° 0 mm 2 mps 760 mmHg 39%
    17:00 +21°C° 0 mm 3 mps 760 mmHg 44%
    18:00 +19°C° 0 mm 3 mps 761 mmHg 49%
    19:00 +17°C° 0 mm 3 mps 761 mmHg 54%
    20:00 +16°C° 0 mm 3 mps 761 mmHg 54%
    21:00 +16°C° 0 mm 3 mps 761 mmHg 55%
    22:00 +14°C° 0 mm 3 mps 761 mmHg 56%
    23:00 +14°C° 0 mm 3 mps 761 mmHg 57%

    27 July, Thursday

    Time Temperature Precipitation Wind Pressure Humidity
    00:00 +13°C° 0 mm 3 mps 761 mmHg 58%
    01:00 +13°C° 0 mm 3 mps 761 mmHg 59%
    02:00 +13°C° 0 mm 3 mps 761 mmHg 59%
    03:00 +13°C° 0 mm 3 mps 761 mmHg 59%
    04:00 +12°C° 0 mm 3 mps 760 mmHg 58%
    05:00 +12°C° 0 mm 3 mps 761 mmHg 58%
    06:00 +12°C° 0 mm 4 mps 761 mmHg 58%
    07:00 +12°C° 0 mm 4 mps 762 mmHg 58%
    08:00 +15°C° 0 mm 4 mps 762 mmHg 53%
    09:00 +18°C° 0 mm 4 mps 762 mmHg 47%
    10:00 +21°C° 0 mm 4 mps 762 mmHg 42%
    11:00 +22°C° 0 mm 4 mps 762 mmHg 37%
    12:00 +23°C° 0 mm 4 mps 761 mmHg 33%
    13:00 +25°C° 0 mm 4 mps 761 mmHg 29%
    14:00 +23°C° 0 mm 4 mps 761 mmHg 31%
    15:00 +23°C° 0 mm 4 mps 761 mmHg 34%
    16:00 +22°C° 0 mm 4 mps 761 mmHg 37%
    17:00 +20°C° 0 mm 5 mps 761 mmHg 45%
    18:00 +17°C° 0 mm 5 mps 762 mmHg 54%
    19:00 +14°C° 0 mm 6 mps 762 mmHg 63%
    20:00 +14°C° 0 mm 5 mps 763 mmHg 67%
    21:00 +13°C° 0 mm 5 mps 763 mmHg 70%
    22:00 +12°C° 0 mm 5 mps 764 mmHg 74%
    23:00 +12°C° 0 mm 5 mps 764 mmHg 76%

    28 July, Friday

    Time Temperature Precipitation Wind Pressure Humidity
    00:00 +10°C° 0 mm 5 mps 764 mmHg 77%
    01:00 +10°C° 0 mm 5 mps 764 mmHg 78%
    02:00 +10°C° 0 mm 4 mps 764 mmHg 79%
    03:00 +10°C° 0 mm 4 mps 764 mmHg 79%
    04:00 +8°C° 0 mm 4 mps 764 mmHg 79%
    05:00 +8°C° 0 mm 4 mps 764 mmHg 78%
    06:00 +8°C° 0 mm 4 mps 765 mmHg 77%
    07:00 +9°C° 0 mm 3 mps 765 mmHg 76%
    08:00 +12°C° 0 mm 3 mps 765 mmHg 69%
    09:00 +16°C° 0 mm 3 mps 765 mmHg 61%
    10:00 +19°C° 0 mm 3 mps 765 mmHg 54%
    11:00 +20°C° 0 mm 2 mps 764 mmHg 50%
    12:00 +21°C° 0 mm 2 mps 764 mmHg 46%
    13:00 +23°C° 0 mm 2 mps 763 mmHg 43%
    14:00 +23°C° 0 mm 2 mps 763 mmHg 46%
    15:00 +21°C° 0 mm 2 mps 763 mmHg 50%
    16:00 +20°C° 0 mm 2 mps 763 mmHg 53%
    17:00 +18°C° 0 mm 2 mps 763 mmHg 64%
    18:00 +16°C° 0 mm 2 mps 764 mmHg 74%
    19:00 +15°C° 0 mm 2 mps 764 mmHg 84%
    20:00 +14°C° 0 mm 2 mps 764 mmHg 86%
    21:00 +14°C° 0 mm 2 mps 764 mmHg 88%
    22:00 +14°C° 0 mm 2 mps 765 mmHg 89%
    23:00 +13°C° 0 mm 2 mps 764 mmHg 90%
    Show more